Location: Cuiry
(49.3858°N, 3.7708°E)
Time: 00:18:01
(UTC+00:00)

BREEZE-M DEB (TANK) - Pass Details

Date: 12 January 2026
Orbit: 317 x 11662 km, 49.7° (Epoch: 17 February)

Event Time Altitude Azimuth Distance (km) Brightness Sun altitude
Rises 16:25:05 0° 223° (SW) 2,799 7.5 -3.0°
Reaches altitude 10° 16:26:33 10° 217° (SW) 2,208 6.6 -3.2°
Maximum altitude 16:31:13 55° 139° (SE) 1,532 4.3 -3.8°
Drops below altitude 10° 16:47:06 10° 68° (ENE) 7,109 7.0 -6.1°
Enters shadow 16:49:54 - 68° (ENE) 8,040 7.3 -6.5°
